Terminal Aerodrome Forecast
Issued by NWS

Home | Current Version | Previous Version | Graphics & Text | Print | Product List | Glossary On
Versions: 1 2 3 4 5 6 7 8 9 10 11 12 13 14 15 16 17 18 19 20 21 22 23 24 25 26 27 28 29 30 31
000
FTUS43 KLOT 260500
TAFDPA
TAF
KDPA 260534Z 2606/2706 02009KT 4SM -SN BR OVC035
      TEMPO 2606/2608 2SM -SN OVC025
     FM261000 02011G15KT 6SM -SHSN OVC035
     FM261500 02012KT P6SM VCSH BKN035
     FM261900 36011G17KT P6SM SCT035
     FM270000 33007KT P6SM FEW040=

USA.gov is the U.S. government's official web portal to all federal, state and local government web resources and services.